Current weather by "City, St" or "zip code"  
 
Advertise Here

Current Conditions: Tucson, Tucson International Airport, AZ

Fair


103.0 F

Last Updated on Aug 4 2020, 2:53 pm MST
Humidity: 12%
Wind Speed: 6.9 G 21.9 mph
Barometer 29.98 in
Dewpoint: 42.1 F
Visibility: 10.00 mi
Precip: --
Heat Index: 98 F
Wind Chill: NA
Current conditions at:

Tucson, Tucson International Airport, AZ (KTUS)

Lat: 32.13153 Lon: 110.95635

Local Radar Image active severe weather and emergency alerts image image weather storm and storm spotter reports image weather observation monitoring service image
Local
Radar
Active
Alerts
Storm Reports Obs
Monitoring

Sign-up For Email & Text Message Weather Alert Notification Services


Advertise Here

Observation History for Tucson, Tucson International Airport, AZ


Time Wind
(mph)
Vis
(mi)
Weather Precip (in) Temperature (F) Relative
Humidity
Wind
Chill
(F)
Heat
Index
(F)
Pressure
Air Dwpt altimeter
(in)
sea level
(mb)
Rmks
2:53 pm MST 6.9 G 21.9 10.00 Fair -- 103.0 42.1 12% NA 98 29.98 1009.5
1:53 pm MST W 9.2 G 17.3 10.00 Fair -- 103.0 42.1 12% NA 98 30.01 1010.4
12:53 pm MST N 5.8 10.00 Fair -- 101.0 46.0 15% NA 97 30.04 1011.3
11:53 am MST 10.00 Fair -- 97.0 50.0 20% NA 94 30.06 1012.3
10:53 am MST 3.5 10.00 Fair -- 95.0 50.0 22% NA 92 30.08 1012.8
9:53 am MST N 0.0 10.00 Fair -- 93.0 50.0 23% NA 90 30.08 1013.0
8:53 am MST SE 9.2 10.00 Fair -- 89.0 54.0 30% NA 87 30.08 1013.2
7:53 am MST SE 6.9 10.00 Fair -- 86.0 55.9 36% NA 85 30.07 1013.0
6:53 am MST SE 9.2 10.00 Fair -- 80.0 57.0 45% NA 80 30.07 1013.0
5:53 am MST S 9.2 10.00 Fair -- 78.0 57.0 48% NA NA 30.05 1012.7
4:53 am MST SE 9.2 10.00 Fair -- 78.0 57.0 48% NA NA 30.04 1012.2
3:53 am MST SE 8.1 10.00 Fair -- 80.0 55.0 42% NA 80 30.03 1012.1
2:53 am MST S 9.2 10.00 Fair -- 80.0 55.0 42% NA 80 30.03 1011.5
1:53 am MST SE 8.1 10.00 Fair -- 82.0 55.0 40% NA 81 30.03 1011.1
12:53 am MST SE 11.5 10.00 Fair -- 82.0 55.0 40% NA 81 30.04 1011.4
11:53 pm MST S 15.0 10.00 Fair -- 83.0 55.0 38% NA 82 30.04 1011.7
10:53 pm MST S 17.3 10.00 Fair -- 84.0 55.0 37% NA 83 30.03 1011.2
9:53 pm MST S 15.0 10.00 Fair -- 85.0 55.9 37% NA 84 30.05 1011.9
8:53 pm MST S 12.7 10.00 Fair -- 87.0 57.0 36% NA 86 30.04 1011.5
7:53 pm MST S 11.5 10.00 Fair -- 89.0 59.0 36% NA 88 30.01 1010.9
6:53 pm MST S 10.4 10.00 Fair -- 91.0 60.1 35% NA 91 29.98 1009.8
5:53 pm MST S 4.6 10.00 Fair -- 92.0 61.0 36% NA 92 29.97 1009.5
4:53 pm MST S 15.0 G 19.6 10.00 Fair -- 93.0 62.1 36% NA 94 29.96 1009.0
3:53 pm MST NW 5.8 10.00 Thunderstorm in Vicinity 00.20 88.0 69.1 54% NA 92 29.98 1009.8

Regional Weather Observation


Tucson, Tucson International Airport, AZ (KTUS)

Fair
103.0 F

Davis-Monthan Air Force Base, AZ (KDMA)

Fair
104.0 F

Casa Grande, Casa Grande Municipal Airport, AZ (KCGZ)

Fair
108.0 F

Nogales, Nogales International Airport, AZ (KOLS)

Fair
95.0 F

Pioneer Airfield, AZ (KALK)

Fair
93.0 F

Fort Huachuca, Libby AAF Ft Huachuca, AZ (KFHU)

Mostly Cloudy
94.0 F